カタログに戻る

NOAA 16 DEB

運用中PO
NORAD 41427·DEBRIS·🇺🇸 United States

打ち上げ Sep 21, 2000 から Vandenberg Space Force Base

Loading…

次のパス (今後24時間)

TLE

最新Source: Space-Track

元期: Sep 13, 2026, 13:55 UTC

1 41427U 00055LG  26256.58037094  .00009577  00000-0  25423-2 0  9991
2 41427  98.9214  25.9816 0022652 232.8451 127.0672 14.48712950544566

AllMySatでNOAA 16 DEBをリアルタイム追跡

Download on the App Store